Weather History for Warroad, MN

Change the Weather History Date:

Tuesday, February 19, 2013

  Actual Average Record
Temperature  
Mean Temperature -4 °F -  
Max Temperature 6 °F 21 °F 43 °F (1954)
Min Temperature -13 °F 0 °F -48 °F (1966)
Degree Days  
Heating Degree Days 68    
Moisture  
Dew Point -12 °F    
Average Humidity 66    
Maximum Humidity 77    
Minimum Humidity 52    
Precipitation  
Precipitation 0.00 in - - ()
Sea Level Pressure  
Sea Level Pressure 30.27 in    
Wind  
Wind Speed 12 mph (NNW)    
Max Wind Speed 16 mph    
Max Gust Speed 25 mph    
Visibility 9 miles    
Events      
Averages and records for this station are not official NWS values.
T = Trace of Precipitation, MM = Missing Value Source: NWS Daily Summary

Daily Weather History Graph

Daily Weather History Graph

Search for Another Location

Airport:

Trip Planner

Search our weather history database for the weather conditions in past years. The results will help you decide how hot, cold, wet, or windy it might be!

Date:

Astronomy

Feb. 19, 2013 Rise Set
Actual Time 7:21 AM CST 5:49 PM CST
Civil Twilight 6:49 AM CST 6:21 PM CST
Nautical Twilight 6:12 AM CST 6:58 PM CST
Astronomical Twilight 5:36 AM CST 7:34 PM CST
Moon 12:05 PM CST (2/19) 3:10 AM CST (2/19)
Length of Visible Light 11h 31m
Length of Day
10h 27m
Waxing Gibbous, 67% of the Moon is Illuminated
Feb 19
Waxing Gibbous
Feb 25
Full
Mar 4
Last Quarter
Mar 11
New
Mar 19
First Quarter

Hourly Weather History & Observations

Time (CST) Temp. Windchill Dew Point Humidity Pressure Visibility Wind Dir Wind Speed Gust Speed Precip Events Conditions
12:14 AM -0.4 °F -19.2 °F -7.6 °F 72% 30.05 in 10.0 mi NNW 13.8 mph 20.7 mph N/A   Overcast
12:34 AM -0.4 °F -19.2 °F -7.6 °F 72% 30.06 in 7.0 mi NNW 13.8 mph 24.2 mph N/A   Overcast
12:54 AM -0.4 °F -16.7 °F -7.6 °F 72% 30.07 in 7.0 mi NNW 10.4 mph - N/A   Overcast
1:13 AM -0.4 °F -19.9 °F -7.6 °F 72% 30.08 in 7.0 mi NNW 15.0 mph - N/A   Overcast
1:34 AM -0.4 °F -18.4 °F -9.4 °F 66% 30.08 in 7.0 mi NNW 12.7 mph 21.9 mph N/A   Overcast
1:54 AM -0.4 °F -17.6 °F -9.4 °F 66% 30.08 in 7.0 mi NNW 11.5 mph 21.9 mph N/A   Overcast
2:13 AM -2.2 °F -18.9 °F -9.4 °F 71% 30.09 in 5.0 mi NNW 10.4 mph 17.3 mph N/A   Haze
2:34 AM -2.2 °F -19.9 °F -9.4 °F 71% 30.10 in 7.0 mi NNW 11.5 mph 20.7 mph N/A   Overcast
2:54 AM -2.2 °F -16.8 °F -9.4 °F 71% 30.10 in 10.0 mi NNW 8.1 mph - N/A   Overcast
3:13 AM -2.2 °F -22.2 °F -11.2 °F 66% 30.11 in 3.0 mi NNW 15.0 mph 24.2 mph N/A   Haze
3:34 AM -4.0 °F -25.2 °F -11.2 °F 71% 30.11 in 5.0 mi NNW 16.1 mph 25.3 mph N/A   Haze
3:54 AM -5.8 °F -25.2 °F -11.2 °F 77% 30.12 in 10.0 mi NNW 12.7 mph 18.4 mph N/A   Overcast
4:13 AM -5.8 °F -23.4 °F -13.0 °F 71% 30.13 in 7.0 mi NNW 10.4 mph - N/A   Mostly Cloudy
4:34 AM -7.6 °F -26.6 °F -16.6 °F 65% 30.14 in 7.0 mi NNW 11.5 mph 23.0 mph N/A   Scattered Clouds
4:54 AM -9.4 °F -30.6 °F -16.6 °F 71% 30.15 in 10.0 mi NNW 13.8 mph 21.9 mph N/A   Clear
5:13 AM -9.4 °F -28.9 °F -16.6 °F 71% 30.15 in 7.0 mi NNW 11.5 mph 18.4 mph N/A   Clear
5:54 AM -11.2 °F -29.0 °F -18.4 °F 70% 30.18 in 10.0 mi NNW 9.2 mph 16.1 mph N/A   Clear
6:34 AM -11.2 °F -32.1 °F -18.4 °F 70% 30.18 in 10.0 mi NNW 12.7 mph 17.3 mph N/A   Clear
6:54 AM -11.2 °F -32.9 °F -18.4 °F 70% 30.19 in 10.0 mi NNW 13.8 mph 21.9 mph N/A   Clear
7:14 AM -11.2 °F -34.4 °F -18.4 °F 70% 30.19 in 10.0 mi NNW 16.1 mph 20.7 mph N/A   Clear
7:34 AM -13.0 °F -36.8 °F -18.4 °F 77% 30.20 in 10.0 mi NNW 16.1 mph 21.9 mph N/A   Clear
7:54 AM -13.0 °F -35.2 °F -18.4 °F 77% 30.21 in 7.0 mi NNW 13.8 mph 21.9 mph N/A   Clear
8:14 AM -11.2 °F -32.9 °F -18.4 °F 70% 30.22 in 10.0 mi NNW 13.8 mph 20.7 mph N/A   Clear
8:34 AM -11.2 °F -33.7 °F -18.4 °F 70% 30.24 in 10.0 mi NNW 15.0 mph 20.7 mph N/A   Clear
8:54 AM -11.2 °F -31.1 °F -18.4 °F 70% 30.25 in 10.0 mi NNW 11.5 mph 18.4 mph N/A   Clear
9:34 AM -9.4 °F -29.8 °F -18.4 °F 65% 30.25 in 10.0 mi NNW 12.7 mph 19.6 mph N/A   Clear
9:54 AM -7.6 °F -27.5 °F -16.6 °F 65% 30.26 in 10.0 mi NNW 12.7 mph 19.6 mph N/A   Clear
10:14 AM -5.8 °F -24.4 °F -14.8 °F 65% 30.27 in 10.0 mi NNW 11.5 mph - N/A   Clear
10:34 AM -5.8 °F -24.4 °F -14.8 °F 65% 30.28 in 10.0 mi NNW 11.5 mph - N/A   Clear
10:53 AM -2.2 °F -20.7 °F -13.0 °F 60% 30.29 in 10.0 mi NNW 12.7 mph - N/A   Clear
11:14 AM -2.2 °F -20.7 °F -13.0 °F 60% 30.29 in 10.0 mi North 12.7 mph - N/A   Clear
11:34 AM -0.4 °F -20.5 °F -11.2 °F 60% 30.30 in 10.0 mi North 16.1 mph - N/A   Clear
11:54 AM -0.4 °F -16.7 °F -11.2 °F 60% 30.31 in 10.0 mi NNW 10.4 mph 13.8 mph N/A   Clear
12:14 PM 1.4 °F -15.3 °F -9.4 °F 61% 30.30 in 10.0 mi North 11.5 mph - N/A   Clear
12:34 PM 1.4 °F -12.5 °F -9.4 °F 61% 30.30 in 10.0 mi North 8.1 mph - N/A   Clear
12:54 PM 1.4 °F -13.5 °F -7.6 °F 66% 30.31 in 10.0 mi North 9.2 mph - N/A   Clear
1:14 PM 3.2 °F -13.9 °F -7.6 °F 61% 30.31 in 10.0 mi North 12.7 mph - N/A   Clear
1:34 PM 3.2 °F -9.1 °F -7.6 °F 61% 30.31 in 10.0 mi North 6.9 mph - N/A   Clear
1:54 PM 5.0 °F -10.8 °F -7.6 °F 56% 30.31 in 10.0 mi North 11.5 mph 17.3 mph N/A   Clear
2:14 PM 5.0 °F -9.1 °F -7.6 °F 56% 30.31 in 10.0 mi NNW 9.2 mph - N/A   Clear
2:34 PM 6.8 °F -6.9 °F -5.8 °F 56% 30.31 in 10.0 mi North 9.2 mph - N/A   Clear
2:54 PM 6.8 °F -6.9 °F -5.8 °F 56% 30.32 in 10.0 mi North 9.2 mph - N/A   Clear
3:14 PM 6.8 °F -7.8 °F -5.8 °F 56% 30.32 in 10.0 mi North 10.4 mph - N/A   Clear
3:34 PM 6.8 °F -5.9 °F -7.6 °F 52% 30.32 in 10.0 mi NNW 8.1 mph 18.4 mph N/A   Clear
3:54 PM 6.8 °F -7.8 °F -5.8 °F 56% 30.33 in 10.0 mi NNW 10.4 mph - N/A   Clear
4:13 PM 5.0 °F -9.1 °F -5.8 °F 61% 30.34 in 10.0 mi NW 9.2 mph - N/A   Clear
4:34 PM 6.8 °F -9.3 °F -5.8 °F 56% 30.34 in 10.0 mi NNW 12.7 mph - N/A   Clear
4:54 PM 5.0 °F -10.0 °F -7.6 °F 56% 30.35 in 10.0 mi NNW 10.4 mph - N/A   Clear
5:14 PM 3.2 °F -13.9 °F -7.6 °F 61% 30.36 in 10.0 mi NNW 12.7 mph - N/A   Clear
6:34 PM 1.4 °F -12.5 °F -7.6 °F 66% 30.40 in 10.0 mi NNW 8.1 mph - N/A   Clear
6:54 PM -0.4 °F -14.7 °F -9.4 °F 66% 30.40 in 10.0 mi NNW 8.1 mph - N/A   Clear
7:14 PM -0.4 °F -13.4 °F -9.4 °F 66% 30.41 in 10.0 mi North 6.9 mph - N/A   Clear
7:54 PM -4.0 °F -19.0 °F -11.2 °F 71% 30.42 in 10.0 mi NW 8.1 mph - N/A   Clear
8:14 PM -5.8 °F -19.9 °F -13.0 °F 71% 30.42 in 10.0 mi NW 6.9 mph - N/A   Clear
8:33 PM -5.8 °F -21.2 °F -14.8 °F 65% 30.42 in 10.0 mi NW 8.1 mph - N/A   Clear
8:54 PM -7.6 °F -23.4 °F -14.8 °F 71% 30.43 in 10.0 mi NNW 8.1 mph - N/A   Clear
9:14 PM -7.6 °F -23.4 °F -16.6 °F 65% 30.43 in 10.0 mi NNW 8.1 mph - N/A   Clear
9:34 PM -7.6 °F -20.6 °F -16.6 °F 65% 30.43 in 10.0 mi NNW 5.8 mph - N/A   Clear
9:54 PM -7.6 °F -16.5 °F -16.6 °F 65% 30.43 in 10.0 mi North 3.5 mph - N/A   Clear
10:13 PM -7.6 °F -20.6 °F -16.6 °F 65% 30.43 in 10.0 mi NNW 5.8 mph - N/A   Clear
10:34 PM -9.4 °F -20.9 °F -16.6 °F 71% 30.44 in 10.0 mi NW 4.6 mph - N/A   Clear
10:54 PM -9.4 °F -24.3 °F -16.6 °F 71% 30.44 in 10.0 mi North 6.9 mph - N/A   Clear
11:14 PM -7.6 °F -23.4 °F -16.6 °F 65% 30.43 in 10.0 mi North 8.1 mph - N/A   Clear
11:34 PM -9.4 °F -18.6 °F -16.6 °F 71% 30.44 in 10.0 mi North 3.5 mph - N/A   Clear
11:54 PM -9.4 °F -24.3 °F -16.6 °F 71% 30.45 in 10.0 mi North 6.9 mph - N/A   Clear